User: anonymous   Login
Location: Fort Wayne
(41.1310°N, 85.1290°W)
Time: 11:29:50
(UTC-04:00)
Language:

MetOp-A - Orbit

View from above orbital plane
View from above orbital plane
View from above satellite
View from above satellite

Ground track
Ground track

The orbit data is extracted from the following two-line orbital elements,

1 29499U 06044A   16273.91324074 +.00000034 +00000-0 +35422-4 0  9993
2 29499 098.7181 331.3724 0001151 154.9247 195.8127 14.21488417515972
Epoch (UTC): 29 September 2016 21:55:04
Eccentricity: 0.0001151
inclination: 98.7181°
perigee height: 819 km
apogee height: 821 km
right ascension of ascending node: 331.3724°
argument of perigee: 154.9247°
revolutions per day: 14.21488417
mean anomaly at epoch: 195.8127°
orbit number at epoch: 51597

The dashed part of the orbit path shows where the satellite is in the earth's shadow,  

DLR